Home > Weather > Kielce > Past weeks

Flag for Poland Weather for the Past 2 Weeks in Kielce, Poland

Now
33 °F

Snow. Low clouds.


Feels Like: 28 °F
Forecast: 34 / 37 °F
Wind: 6 mph from Northwest

Location: Kielce

Current Time: Feb 10, 2016 at 7:36:57 PM

Latest Report: Feb 10, 2016 at 7:00 PM


Visibility: 1 mi

Pressure: 29.23 "Hg

Humidity: 94%

Dew point: 31 °F

Location of KielceLocation

Historic Weather in Kielce — Graph

°F

Kielce Temperature Yesterday

Maximum temperature yesterday: 47 °F (at 5:00 PM)
Minimum temperature yesterday: 43 °F (at 8:00 AM)
Average temperature yesterday: 45 °F

High & Low Weather Summary for the Past Weeks

 TemperatureHumidityPressure
High53 °F (Jan 30, 3:00 PM)100% (Jan 26, 7:00 PM)30.35 "Hg (Jan 26, 7:00 PM)
Low26 °F (Jan 29, 8:00 AM)49% (Jan 30, 3:00 PM)29.21 "Hg (Feb 10, 1:00 PM)
Average39 °F80%29.96 "Hg
* Reported Jan 26 6:00 PM — Feb 10 6:00 PM, Kielce, Weather by CustomWeather, © 2016

Note: Actual official high and low records may vary slightly from our data, if they occured in-between our weather recording intervals... More about our weather records

Advertising

Kielce Weather History for the Previous 24 Hours

 ConditionsComfort  
Time TempWeatherWind HumidityBarometerVisibility
6:00 PM
Wed, Feb 10
34 °FSnow. Low clouds.5 mph93%29.23 "Hg1 mi
5:00 PM35 °FDrizzle. Low clouds.7 mph93%29.23 "Hg2 mi
4:00 PM37 °FRain. Low clouds.8 mph92%29.23 "Hg3 mi
3:00 PM39 °FLight rain. Low clouds.6 mph92%29.21 "Hg3 mi
2:00 PM41 °FRain. Overcast.6 mph92%29.21 "Hg4 mi
1:00 PM46 °FRain. Overcast.1 mph81%29.21 "Hg9 mi
12:00 PM47 °FLight rain. Overcast.3 mph76%29.23 "Hg16 mi
11:00 AM47 °FOvercast.5 mph76%29.26 "Hg19 mi
10:00 AM47 °FOvercast.3 mph75%29.26 "Hg25 mi
9:00 AM46 °FOvercast.3 mph81%29.26 "Hg19 mi
8:00 AM45 °FOvercast.3 mph85%29.26 "Hg16 mi
7:00 AM45 °FLight rain. Overcast.2 mph85%29.26 "Hg17 mi
6:00 AM44 °FLight rain. Overcast.3 mph89%29.29 "Hg13 mi
5:00 AM45 °FLight rain. Overcast.3 mph84%29.29 "Hg16 mi
9:00 PM
Tue, Feb 9
44 °FOvercast.5 mph73%29.47 "Hg22 mi
8:00 PM44 °FPassing clouds.5 mph71%29.50 "Hg22 mi
7:00 PM47 °FOvercast.6 mph61%29.50 "Hg28 mi
Weather by CustomWeather, © 2016

See weather overviewHow to use our weather pages